{"data":{"norad_id":55326,"epoch":"2026-05-25T05:29:56.789664Z","epoch_age_seconds":55184,"freshness":"FRESH","line1":"1 55326U 23011C   26145.22912951  .00003563  00000+0  15791-3 0  9999","line2":"2 55326  40.4973 122.7968 0004519 235.7924 124.2457 15.22687402184359","mean_motion":15.22687402,"eccentricity":0.0004519,"inclination_deg":40.4973,"raan_deg":122.7968,"arg_perigee_deg":235.7924,"mean_anomaly_deg":124.2457,"bstar":0.00015791,"rev_number":18435,"period_min":94.569640367984,"perigee_km":494.63129995977,"apogee_km":500.84571624399,"semimajor_km":6875.8755081019,"source":"CELESTRAK","updated_at":"2026-05-25T13:38:24.930101Z"}}